Location: Poughquag
(41.6090°N, 73.6820°W)
Time: 11:39:34
(UTC-04:00)

Vanguard 1 Rocket - Pass Details

Date: 05 June 2020
Orbit: 653 x 4224 km, 34.3° (Epoch: 06 July)

Event Time Altitude Azimuth Distance (km) Brightness Sun altitude
Rises 04:18:14 0° 276° (W) 7,134 11.6 -10.2°
Reaches altitude 10° 04:23:59 10° 272° (W) 5,539 11.0 -9.4°
Maximum altitude 04:37:22 46° 206° (SSW) 2,140 8.9 -7.5°
Drops below altitude 10° 04:44:30 10° 135° (SE) 3,018 10.2 -6.5°
Sets 04:46:43 0° 128° (SE) 3,710 10.7 -6.1°
